Alpena, MI

6:33 AM EST on February 24, 2017 (GMT -0500)
Alpena County Regional

Weather History for KAPN - December, 2012

Change the Weather History Date:

Wednesday, December 26, 2012

  Actual Average Record
Temperature  
Mean Temperature 24 °F 22 °F  
Max Temperature 26 °F 29 °F 50 °F (1994)
Min Temperature 21 °F 15 °F -11 °F (1989)
Degree Days  
Heating Degree Days 41 43  
Month to date heating degree days 854 1021  
Since 1 July heating degree days 2555 2844  
Moisture  
Dew Point 18 °F    
Average Humidity 80    
Maximum Humidity 92    
Minimum Humidity 68    
Precipitation  
Precipitation T in 0.06 in 0.35 in (2016)
Month to date precipitation 2.83 1.49  
Year to date precipitation 27.88 27.90  
Snow  
Snow 0.40 in 0.70 in 8.50 in (2004)
Month to date snowfall 11.2 15.9  
Since 1 July snowfall 13.4 24.0  
Snow Depth 4.00 in    
Sea Level Pressure  
Sea Level Pressure 30.24 in    
Wind  
Wind Speed 12 mph (NNE)    
Max Wind Speed 21 mph    
Max Gust Speed 26 mph    
Visibility 6 miles    
Events Snow    
T = Trace of Precipitation, MM = Missing Value Source: NWS Daily Summary

Daily Weather History Graph

Daily Weather History Graph

Search for Another Location

Airport or City:

Trip Planner

Search our weather history database for the weather conditions in past years. The results will help you decide how hot, cold, wet, or windy it might be!

Date:

Astronomy

Dec. 26, 2012 Rise Set
Actual Time 8:11 AM EST 4:58 PM EST
Civil Twilight 7:38 AM EST 5:32 PM EST
Nautical Twilight 7:00 AM EST 6:09 PM EST
Astronomical Twilight 6:24 AM EST 6:45 PM EST
Moon 3:52 PM EST (12/26) 6:33 AM EST (12/26)
Length of Visible Light 9h 54m
Length of Day
8h 46m
Waxing Gibbous, 97% of the Moon is Illuminated
Dec 26
Waxing Gibbous
Dec 28
Full
Jan 4
Last Quarter
Jan 11
New
Jan 18
First Quarter

Hourly Weather History & Observations

Time (EST) Temp. Windchill Dew Point Humidity Pressure Visibility Wind Dir Wind Speed Gust Speed Precip Events Conditions
12:54 AM 24.1 °F 19.7 °F 19.9 °F 84% 30.38 in 10.0 mi NNW 3.5 mph - N/A   Overcast
1:54 AM 25.0 °F - 19.9 °F 81% 30.38 in 10.0 mi Calm Calm - 0.00 in   Overcast
2:54 AM 25.0 °F - 19.9 °F 81% 30.38 in 10.0 mi Calm Calm - N/A   Overcast
3:54 AM 26.1 °F 19.4 °F 18.0 °F 71% 30.37 in 10.0 mi East 5.8 mph - N/A   Overcast
4:54 AM 25.0 °F 18.1 °F 18.0 °F 75% 30.36 in 10.0 mi NE 5.8 mph - N/A   Overcast
5:54 AM 24.1 °F 14.4 °F 18.0 °F 77% 30.32 in 10.0 mi NNE 9.2 mph - N/A   Overcast
6:54 AM 24.1 °F 13.7 °F 17.1 °F 75% 30.33 in 10.0 mi NE 10.4 mph - N/A   Overcast
7:54 AM 24.1 °F 13.7 °F 17.1 °F 75% 30.33 in 10.0 mi NE 10.4 mph - N/A   Overcast
8:01 AM 24.8 °F 14.6 °F 15.8 °F 69% 30.29 in 10.0 mi NE 10.4 mph - N/A   Overcast
8:57 AM 23.0 °F 9.6 °F 17.6 °F 80% 30.27 in 2.5 mi NNE 16.1 mph - 0.00 in Snow Light Snow
9:10 AM 23.0 °F 10.1 °F 17.6 °F 80% 30.26 in 1.2 mi NNE 15.0 mph - 0.00 in Snow Light Snow
9:33 AM 21.2 °F 6.0 °F 17.6 °F 86% 30.26 in 2.5 mi NNE 19.6 mph - 0.00 in Snow Light Snow
9:54 AM 21.9 °F 7.3 °F 18.0 °F 85% 30.29 in 2.0 mi NE 18.4 mph - 0.00 in Snow Light Snow
10:09 AM 21.2 °F 7.3 °F 17.6 °F 86% 30.27 in 1.5 mi NE 16.1 mph 24.2 mph 0.00 in Snow Light Snow
10:31 AM 21.2 °F 6.4 °F 17.6 °F 86% 30.27 in 0.8 mi NE 18.4 mph - 0.00 in Snow Light Snow
10:54 AM 21.9 °F 8.7 °F 18.0 °F 85% 30.30 in 0.8 mi NE 15.0 mph 24.2 mph 0.00 in Snow Light Snow
11:02 AM 21.2 °F 7.8 °F 17.6 °F 86% 30.25 in 1.0 mi NNE 15.0 mph - 0.00 in Snow Light Snow
11:54 AM 21.9 °F 9.8 °F 19.0 °F 89% 30.26 in 1.2 mi NNE 12.7 mph - 0.00 in Snow Light Snow
12:29 PM 23.0 °F 9.6 °F 19.4 °F 86% 30.18 in 1.0 mi NNE 16.1 mph - 0.00 in Snow Light Snow
12:54 PM 23.0 °F 9.2 °F 19.0 °F 85% 30.21 in 1.0 mi NNE 17.3 mph - 0.00 in Snow Light Snow
1:13 PM 21.2 °F 7.3 °F 17.6 °F 86% 30.16 in 1.2 mi NNE 16.1 mph - 0.00 in Snow Light Snow
1:35 PM 21.2 °F 7.8 °F 17.6 °F 86% 30.17 in 0.8 mi NNE 15.0 mph - 0.00 in Snow Light Snow
1:58 PM 21.2 °F 7.8 °F 17.6 °F 86% 30.17 in 1.5 mi NE 15.0 mph - 0.00 in Snow Light Snow
2:54 PM 21.0 °F 8.1 °F 16.0 °F 81% 30.21 in 3.0 mi NNE 13.8 mph 23.0 mph 0.00 in Snow Light Snow
3:54 PM 21.0 °F 8.1 °F 16.0 °F 81% 30.19 in 3.0 mi NNE 13.8 mph - 0.00 in Snow Light Snow
4:54 PM 21.0 °F 7.1 °F 16.0 °F 81% 30.19 in 10.0 mi NNE 16.1 mph - 0.00 in   Overcast
5:54 PM 21.9 °F 8.7 °F 16.0 °F 78% 30.17 in 10.0 mi NNE 15.0 mph - N/A   Mostly Cloudy
6:54 PM 23.0 °F 9.6 °F 16.0 °F 74% 30.15 in 10.0 mi NNE 16.1 mph - N/A   Overcast
7:54 PM 23.0 °F 8.3 °F 16.0 °F 74% 30.13 in 10.0 mi NNE 19.6 mph - N/A   Overcast
8:54 PM 24.1 °F 11.5 °F 17.1 °F 75% 30.12 in 10.0 mi NNE 15.0 mph - N/A   Overcast
9:54 PM 24.1 °F 14.4 °F 17.1 °F 75% 30.13 in 10.0 mi ENE 9.2 mph - N/A   Overcast
10:54 PM 23.0 °F 11.7 °F 17.1 °F 78% 30.12 in 10.0 mi NNE 11.5 mph - N/A   Overcast
11:54 PM 23.0 °F 11.1 °F 17.1 °F 78% 30.11 in 10.0 mi NNE 12.7 mph - N/A   Overcast